This is the latest recevied weather packets stored in our database for station/object W0VI. If no packets are shown the sender has not sent any weather packets the latest 10 day(s).
| Time | Temp. | Humidity | Pressure | Rain* | Wind** | Luminosity | Snow |
|---|---|---|---|---|---|---|---|
| 1787625918 | 22.22° C | 83% | 1017.1 hPa | 0 mm | - | 0 W/m² | - |
| 1787625615 | 22.22° C | 83% | 1017.3 hPa | 0 mm | - | 0 W/m² | - |
| 1787625318 | 21.67° C | 83% | 1017 hPa | 0 mm | - | 0 W/m² | - |
| 1787625006 | 21.67° C | 82% | 1017 hPa | 0 mm | - | 0 W/m² | - |
| 1787624701 | 21.67° C | 82% | 1017.3 hPa | 0 mm | - | 0 W/m² | - |
| 1787624391 | 21.67° C | 81% | 1017.2 hPa | 0 mm | - | 0 W/m² | - |
| 1787624087 | 21.67° C | 81% | 1016.9 hPa | 0 mm | - | 0 W/m² | - |
| 1787623787 | 22.22° C | 81% | 1016.7 hPa | 0 mm | - | 0 W/m² | - |
| 1787623486 | 22.22° C | 80% | 1016.5 hPa | 0 mm | - | 0 W/m² | - |
| 1787623185 | 22.78° C | 80% | 1016.2 hPa | 0 mm | - | 0 W/m² | - |
| 1787622881 | 22.78° C | 80% | 1016.3 hPa | 0 mm | - | 0 W/m² | - |
| 1787622576 | 22.78° C | 79% | 1016.3 hPa | 0 mm | - | 0 W/m² | - |
| 1787622267 | 22.78° C | 79% | 1016.2 hPa | 0 mm | - | 0 W/m² | - |
| 1787621967 | 23.33° C | 78% | 1016.2 hPa | 0 mm | - | 0 W/m² | - |
| 1787621667 | 23.33° C | 77% | 1015.9 hPa | 0 mm | - | 0 W/m² | - |
| 1787621362 | 23.33° C | 76% | 1015.9 hPa | 0 mm | - | 0 W/m² | - |
| 1787621058 | 23.33° C | 75% | 1015.9 hPa | 0 mm | - | 0 W/m² | - |
| 1787620753 | 23.89° C | 74% | 1016 hPa | 0 mm | - | 0 W/m² | - |
| 1787620448 | 23.89° C | 73% | 1016.1 hPa | 0 mm | - | 0 W/m² | - |
| 1787620144 | 24.44° C | 71% | 1016 hPa | 0 mm | - | 1 W/m² | - |
| 1787619839 | 25° C | 70% | 1016.1 hPa | 0 mm | - | 1 W/m² | - |
| 1787619534 | 25° C | 69% | 1016.1 hPa | 0 mm | - | 5 W/m² | - |
| 1787619230 | 25.56° C | 68% | 1015.9 hPa | 0 mm | - | 7 W/m² | - |
| 1787618929 | 25.56° C | 67% | 1016.2 hPa | 0 mm | - | 10 W/m² | - |
| 1787618625 | 26.11° C | 65% | 1016 hPa | 0 mm | - | 14 W/m² | - |
* Rain latest hour (hover to see other rain measurements)
** Current wind speed in m/s (hover to see current wind gust speed)